Decatur, IL

1:24 AM CDT on April 24, 2017 (GMT -0500)
Decatur

Weather History for KDEC - December, 2013

Change the Weather History Date:

Tuesday, December 24, 2013

  Actual Average Record
Temperature  
Mean Temperature 13 °F 29 °F  
Max Temperature 21 °F 37 °F 48 °F (2015)
Min Temperature 4 °F 21 °F -2 °F (2000)
Degree Days  
Heating Degree Days 52 36  
Month to date heating degree days 875 801  
Since 1 July heating degree days 2023 1882  
Cooling Degree Days 0 0  
Month to date cooling degree days 0 0  
Year to date cooling degree days 1079 1048  
Moisture  
Dew Point 3 °F    
Average Humidity 68    
Maximum Humidity 76    
Minimum Humidity 59    
Precipitation  
Precipitation 0.00 in 0.09 in 0.35 in (2008)
Month to date precipitation 1.54 1.91  
Year to date precipitation 33.56 37.82  
Sea Level Pressure  
Sea Level Pressure 30.55 in    
Wind  
Wind Speed 9 mph (SW)    
Max Wind Speed 18 mph    
Max Gust Speed 25 mph    
Visibility 10 miles    
Events      
T = Trace of Precipitation, MM = Missing Value Source: NWS Daily Summary

Daily Weather History Graph

Daily Weather History Graph

Search for Another Location

Airport or City:

Trip Planner

Search our weather history database for the weather conditions in past years. The results will help you decide how hot, cold, wet, or windy it might be!

Date:

Astronomy

Dec. 24, 2013 Rise Set
Actual Time 7:14 AM CST 4:35 PM CST
Civil Twilight 6:44 AM CST 5:06 PM CST
Nautical Twilight 6:10 AM CST 5:40 PM CST
Astronomical Twilight 5:37 AM CST 6:13 PM CST
Moon 11:43 PM CST 11:09 AM CST
Length of Visible Light 10h 22m
Length of Day
9h 21m
Waning Gibbous, 58% of the Moon is Illuminated
Dec 24
Waning Gibbous
Dec 25
Last Quarter
Jan 1
New
Jan 7
First Quarter
Jan 15
Full

Hourly Weather History & Observations

Time (CST) Temp. Windchill Dew Point Humidity Pressure Visibility Wind Dir Wind Speed Gust Speed Precip Events Conditions
12:54 AM 7.0 °F -9.8 °F -5.1 °F 58% 30.57 in 10.0 mi WNW 13.8 mph - N/A   Clear
1:54 AM 7.0 °F -7.5 °F -4.0 °F 61% 30.57 in 10.0 mi WNW 10.4 mph 18.4 mph N/A   Clear
2:54 AM 6.1 °F -7.8 °F -2.9 °F 67% 30.58 in 10.0 mi WNW 9.2 mph - N/A   Clear
3:54 AM 5.0 °F -10.8 °F -2.9 °F 70% 30.58 in 10.0 mi West 11.5 mph 17.3 mph N/A   Clear
4:54 AM 5.0 °F -9.1 °F -2.9 °F 70% 30.59 in 10.0 mi West 9.2 mph - N/A   Clear
5:54 AM 3.9 °F -10.4 °F -4.0 °F 70% 30.60 in 10.0 mi WNW 9.2 mph - N/A   Clear
6:54 AM 3.9 °F -6.9 °F -5.1 °F 66% 30.61 in 10.0 mi NW 5.8 mph - N/A   Clear
7:54 AM 5.0 °F -5.6 °F -4.0 °F 66% 30.63 in 10.0 mi West 5.8 mph - N/A   Clear
8:54 AM 7.0 °F -3.3 °F -2.9 °F 64% 30.64 in 10.0 mi West 5.8 mph - N/A   Clear
9:54 AM 8.1 °F -3.2 °F -2.9 °F 61% 30.65 in 10.0 mi West 6.9 mph - N/A   Clear
10:54 AM 10.9 °F 1.4 °F -0.0 °F 61% 30.64 in 10.0 mi Variable 5.8 mph - N/A   Clear
11:54 AM 12.0 °F 4.1 °F 1.0 °F 61% 30.61 in 10.0 mi Variable 4.6 mph - N/A   Clear
12:54 PM 15.1 °F - 3.9 °F 61% 30.58 in 10.0 mi Calm Calm - N/A   Clear
1:54 PM 17.1 °F 11.7 °F 6.1 °F 62% 30.55 in 10.0 mi SSW 3.5 mph - N/A   Clear
2:54 PM 19.0 °F 8.2 °F 8.1 °F 62% 30.54 in 10.0 mi South 9.2 mph - N/A   Clear
3:54 PM 19.0 °F 7.5 °F 8.1 °F 62% 30.53 in 10.0 mi SSE 10.4 mph - N/A   Clear
4:54 PM 19.0 °F 9.0 °F 8.1 °F 62% 30.52 in 10.0 mi South 8.1 mph - N/A   Mostly Cloudy
5:54 PM 19.9 °F 8.6 °F 8.1 °F 60% 30.51 in 10.0 mi South 10.4 mph - N/A   Mostly Cloudy
6:54 PM 19.9 °F 7.9 °F 10.0 °F 65% 30.49 in 10.0 mi SSE 11.5 mph - N/A   Mostly Cloudy
7:54 PM 19.9 °F 8.6 °F 9.0 °F 62% 30.47 in 10.0 mi SSE 10.4 mph 19.6 mph N/A   Overcast
8:54 PM 19.9 °F 7.3 °F 9.0 °F 62% 30.44 in 10.0 mi SSE 12.7 mph - N/A   Scattered Clouds
9:54 PM 19.9 °F 8.6 °F 8.1 °F 60% 30.42 in 10.0 mi SSE 10.4 mph 24.2 mph N/A   Partly Cloudy
10:54 PM 19.9 °F 7.9 °F 10.0 °F 65% 30.42 in 10.0 mi South 11.5 mph - N/A   Mostly Cloudy
11:54 PM 21.0 °F 8.6 °F 10.9 °F 65% 30.40 in 10.0 mi South 12.7 mph 21.9 mph N/A   Overcast